EW2546 Weather Reports


Display with metric or nautical units.
time (UTC)temp
F
wind
direction
speed
MPH
gust
MPH
rain 1hr
in
rain 24hr
in
rain mn
in
humidity
%
barometer
mb
20221209022027 33 0 1.0 6.0 0.00 0.01 0.00 85 1022.5
20221209021531 33 312 1.0 7.0 0.00 0.01 0.00 84 1022.5
20221209021026 33 304 2.0 7.0 0.00 0.01 0.00 84 1022.5
20221209020525 33 328 0.0 5.0 0.00 0.01 0.00 84 1022.5
20221209020037 33 0 1.0 3.0 0.00 0.01 0.00 83 1022.5
20221209015526 33 0 0.0 3.0 0.00 0.09 0.00 83 1022.5
20221209015024 34 0 0.0 8.0 0.00 0.09 0.00 83 1022.5
20221209014529 34 306 0.0 8.0 0.00 0.09 0.00 84 1022.6
20221209014026 34 335 0.0 6.0 0.00 0.09 0.00 83 1022.6
20221209013524 34 0 0.0 7.0 0.00 0.09 0.00 83 1022.5
20221209013032 34 0 0.0 7.0 0.00 0.09 0.00 84 1022.5
20221209012523 34 317 2.0 6.0 0.00 0.09 0.00 85 1022.4
20221209012023 34 355 1.0 6.0 0.00 0.09 0.00 85 1022.3
20221209011531 34 0 1.0 6.0 0.00 0.09 0.00 85 1022.3
20221209011022 34 0 0.0 3.0 0.00 0.09 0.00 85 1022.4
20221209010523 34 0 0.0 2.0 0.00 0.09 0.00 85 1022.3
20221209010028 34 0 0.0 3.0 0.00 0.09 0.00 85 1022.3
20221209005526 34 0 0.0 5.0 0.00 0.10 0.00 84 1022.2
20221209005026 34 0 1.0 7.0 0.00 0.10 0.00 85 1022.2
20221209004531 34 274 0.0 7.0 0.00 0.10 0.00 84 1022.2
20221209004022 34 0 0.0 6.0 0.00 0.10 0.00 85 1022.2
20221209003526 34 307 1.0 6.0 0.00 0.10 0.00 85 1022.1
20221209003029 35 276 1.0 5.0 0.00 0.10 0.00 85 1022.1
20221209002525 35 315 1.0 8.0 0.00 0.10 0.00 85 1022.1
20221209002027 35 302 2.0 10.0 0.00 0.10 0.00 84 1022.1
20221209001529 35 311 3.0 10.0 0.00 0.10 0.00 85 1022.1
20221209001024 35 293 2.0 7.0 0.00 0.10 0.00 85 1022.0
20221209000524 35 294 2.0 8.0 0.00 0.10 0.00 84 1021.9
20221209000040 35 0 2.0 8.0 0.00 0.10 0.00 84 1021.9
20221208235526 35 310 2.0 6.0 0.00 0.11 0.00 84 1021.9
20221208235025 35 325 2.0 6.0 0.00 0.11 0.00 83 1021.9
20221208234532 35 305 1.0 6.0 0.00 0.11 0.00 84 1021.8
20221208234023 35 288 0.0 3.0 0.00 0.11 0.00 84 1021.9
20221208233527 35 0 0.0 9.0 0.00 0.11 0.00 84 1021.9
20221208233038 35 288 0.0 9.0 0.00 0.11 0.00 84 1021.9
20221208232525 35 269 1.0 4.0 0.00 0.11 0.00 83 1021.9
20221208232024 36 0 1.0 4.0 0.00 0.11 0.00 83 1022.0
20221208231529 36 294 1.0 4.0 0.00 0.11 0.00 83 1021.9
20221208231025 36 293 0.0 4.0 0.00 0.11 0.00 82 1022.0
20221208230532 36 290 0.0 4.0 0.00 0.11 0.00 81 1022.0
20221208230034 36 0 1.0 8.0 0.00 0.11 0.00 81 1021.9
20221208225526 36 292 1.0 8.0 0.00 0.12 0.00 80 1021.8
20221208225023 37 337 1.0 8.0 0.00 0.12 0.00 81 1021.7
20221208224530 37 281 0.0 5.0 0.00 0.12 0.00 81 1021.7
20221208224023 37 290 2.0 6.0 0.00 0.12 0.00 81 1021.6
20221208223526 37 325 1.0 7.0 0.00 0.12 0.00 80 1021.5
20221208223029 37 51 3.0 7.0 0.00 0.12 0.00 80 1021.4
20221208222526 37 306 1.0 6.0 0.00 0.12 0.00 79 1021.4
20221208222023 38 301 1.0 8.0 0.00 0.12 0.00 79 1021.4
20221208221531 38 297 1.0 8.0 0.00 0.12 0.00 79 1021.4
20221208221024 38 306 2.0 8.0 0.00 0.12 0.00 77 1021.3
20221208220525 38 322 0.0 5.0 0.00 0.12 0.00 79 1021.2
20221208220030 39 320 2.0 5.0 0.00 0.12 0.00 76 1021.1
20221208215527 39 323 1.0 7.0 0.00 0.14 0.00 74 1021.0
20221208215026 39 284 1.0 8.0 0.00 0.14 0.00 74 1021.2
20221208214530 40 0 0.0 8.0 0.00 0.14 0.00 73 1021.0
20221208214027 40 300 1.0 4.0 0.00 0.14 0.00 72 1020.9
20221208213523 40 0 0.0 5.0 0.00 0.14 0.00 72 1020.9
20221208213031 41 0 1.0 5.0 0.00 0.14 0.00 71 1020.9
20221208212526 41 306 0.0 6.0 0.00 0.14 0.00 72 1021.0
20221208212027 41 299 2.0 6.0 0.00 0.14 0.00 71 1020.9
20221208211532 41 342 1.0 7.0 0.00 0.14 0.00 74 1020.9
20221208211026 41 322 1.0 7.0 0.00 0.14 0.00 73 1020.9
20221208210524 41 287 0.0 4.0 0.00 0.14 0.00 73 1020.9
20221208210029 42 0 1.0 5.0 0.00 0.14 0.00 69 1020.9
20221208205526 42 298 1.0 8.0 0.00 0.15 0.00 70 1020.8
20221208205027 42 0 1.0 8.0 0.00 0.15 0.00 68 1020.7
20221208204532 42 312 2.0 9.0 0.00 0.15 0.00 70 1020.6
20221208204026 42 283 1.0 9.0 0.00 0.15 0.00 70 1020.6
20221208203527 43 325 1.0 6.0 0.00 0.15 0.00 71 1020.5
20221208203041 43 0 1.0 8.0 0.00 0.15 0.00 71 1020.5
20221208202523 43 317 0.0 8.0 0.00 0.15 0.00 68 1020.5
20221208202029 43 0 1.0 9.0 0.00 0.15 0.00 67 1020.5
20221208201531 43 324 1.0 9.0 0.00 0.15 0.00 67 1020.5
20221208201024 43 0 3.0 9.0 0.00 0.15 0.00 70 1020.4
20221208200524 43 322 0.0 6.0 0.00 0.15 0.00 69 1020.3
20221208200031 43 0 1.0 7.0 0.00 0.15 0.00 69 1020.2
20221208195526 43 24 2.0 7.0 0.00 0.15 0.00 69 1020.1
20221208195026 43 328 1.0 6.0 0.00 0.15 0.00 68 1020.1
20221208194537 43 278 1.0 6.0 0.00 0.15 0.00 70 1020.0
20221208194026 43 314 1.0 9.0 0.00 0.15 0.00 66 1019.9
20221208193525 44 42 0.0 9.0 0.00 0.15 0.00 68 1019.7
20221208193042 44 360 2.0 10.0 0.00 0.15 0.00 66 1019.6
20221208192526 44 291 1.0 10.0 0.00 0.15 0.00 67 1019.6
20221208192026 44 313 2.0 10.0 0.00 0.15 0.00 67 1019.4
20221208191529 44 275 3.0 8.0 0.00 0.15 0.00 66 1019.4
20221208191025 44 301 0.0 9.0 0.00 0.15 0.00 67 1019.5
20221208190524 44 272 1.0 9.0 0.00 0.15 0.00 66 1019.6
20221208190032 45 283 1.0 6.0 0.00 0.15 0.00 65 1019.4
20221208185523 45 284 1.0 6.0 0.00 0.17 0.00 67 1019.3
20221208185024 45 0 2.0 7.0 0.00 0.17 0.00 64 1019.3
20221208184531 45 0 0.0 9.0 0.00 0.17 0.00 66 1019.3
20221208184026 45 319 1.0 9.0 0.00 0.17 0.00 68 1019.2
20221208183526 45 300 2.0 9.0 0.00 0.17 0.00 66 1019.0
20221208183036 45 311 2.0 6.0 0.00 0.17 0.00 66 1019.1
20221208182528 45 294 2.0 4.0 0.00 0.17 0.00 66 1019.2
20221208182024 45 297 1.0 9.0 0.00 0.17 0.00 66 1019.2
20221208181532 45 306 0.0 9.0 0.00 0.17 0.00 67 1019.0
20221208181029 45 331 1.0 10.0 0.00 0.17 0.00 67 1018.9
20221208180524 45 344 2.0 10.0 0.00 0.17 0.00 66 1019.0
20221208180036 46 299 3.0 10.0 0.00 0.17 0.00 63 1018.9
20221208175524 46 360 1.0 6.0 0.00 0.20 0.00 63 1018.9
20221208175024 46 265 2.0 6.0 0.00 0.20 0.00 68 1019.0
20221208174535 46 0 1.0 7.0 0.00 0.20 0.00 65 1018.9
20221208174030 46 290 1.0 8.0 0.00 0.20 0.00 66 1018.8
20221208173526 46 292 1.0 9.0 0.00 0.20 0.00 68 1018.8
20221208173033 45 0 2.0 9.0 0.00 0.20 0.00 64 1018.8
20221208172526 45 301 2.0 11.0 0.00 0.20 0.00 66 1018.8
20221208172027 45 315 2.0 11.0 0.00 0.20 0.00 69 1018.8
20221208171536 45 355 4.0 11.0 0.00 0.20 0.00 67 1018.7
20221208171026 45 299 3.0 10.0 0.00 0.20 0.00 66 1018.6
20221208170527 45 301 4.0 10.0 0.00 0.20 0.00 66 1018.6
20221208170046 45 322 1.0 8.0 0.00 0.20 0.00 69 1018.6
20221208165523 45 302 2.0 12.0 0.00 0.24 0.00 67 1018.7
20221208165025 45 0 2.0 12.0 0.00 0.24 0.00 73 1018.8
20221208164537 45 301 4.0 12.0 0.00 0.24 0.00 68 1018.7
20221208164025 45 301 1.0 9.0 0.00 0.24 0.00 72 1018.7
20221208163526 45 314 2.0 12.0 0.00 0.24 0.00 68 1018.8
20221208163038 45 309 3.0 12.0 0.00 0.24 0.00 69 1018.8
20221208162526 44 313 4.0 12.0 0.00 0.24 0.00 71 1018.8
20221208162028 45 306 4.0 12.0 0.00 0.24 0.00 73 1018.7
20221208161542 45 271 3.0 9.0 0.00 0.24 0.00 73 1018.8
20221208161027 45 321 2.0 11.0 0.00 0.24 0.00 76 1018.9
20221208160523 44 317 2.0 12.0 0.00 0.24 0.00 75 1018.9
20221208160034 44 0 2.0 14.0 0.00 0.24 0.00 73 1018.9
20221208155527 44 75 4.0 17.0 0.00 0.28 0.00 75 1018.8
20221208155026 44 288 3.0 17.0 0.00 0.28 0.00 76 1018.8
20221208154534 44 296 3.0 17.0 0.00 0.28 0.00 80 1018.8
20221208154025 44 0 2.0 9.0 0.00 0.28 0.00 77 1018.9
20221208153531 44 16 1.0 13.0 0.00 0.28 0.00 77 1019.1
20221208153033 44 321 2.0 13.0 0.00 0.28 0.00 79 1019.0
20221208152526 43 0 2.0 10.0 0.00 0.28 0.00 81 1019.1
20221208152029 43 34 4.0 14.0 0.00 0.28 0.00 83 1019.2
20221208151532 43 59 5.0 14.0 0.00 0.28 0.00 86 1019.2
20221208151022 42 341 1.0 12.0 0.00 0.28 0.00 88 1019.1
20221208150523 42 320 3.0 12.0 0.00 0.28 0.00 90 1019.2
20221208150039 42 0 1.0 12.0 0.00 0.28 0.00 93 1019.1
20221208145526 41 304 1.0 12.0 0.00 0.36 0.00 95 1019.2
20221208145023 41 0 3.0 12.0 0.00 0.36 0.00 97 1019.2
20221208144530 41 24 2.0 10.0 0.00 0.36 0.00 97 1019.2
20221208144026 41 303 2.0 12.0 0.00 0.36 0.00 97 1018.9
20221208143526 41 279 3.0 12.0 0.00 0.36 0.00 97 1018.9
20221208143032 41 305 1.0 5.0 0.00 0.36 0.00 98 1018.9
20221208142525 41 0 0.0 4.0 0.00 0.36 0.00 98 1018.8
20221208142026 41 0 0.0 2.0 0.00 0.36 0.00 98 1018.8
20221208141530 40 0 0.0 2.0 0.00 0.36 0.00 98 1018.8
20221208141022 40 0 0.0 0.0 0.00 0.36 0.00 98 1018.9
20221208140525 40 0 0.0 3.0 0.00 0.36 0.00 98 1018.8
20221208140029 40 0 0.0 3.0 0.00 0.36 0.00 98 1018.8
20221208135523 40 0 0.0 3.0 0.00 0.50 0.00 98 1018.7
20221208135023 40 0 0.0 5.0 0.00 0.50 0.00 98 1018.7
20221208134529 39 0 0.0 5.0 0.00 0.50 0.00 98 1018.7
20221208134026 39 0 0.0 6.0 0.00 0.50 0.00 97 1018.7
20221208133524 39 0 0.0 6.0 0.00 0.50 0.00 98 1018.7
20221208133032 39 0 0.0 6.0 0.00 0.50 0.00 97 1018.7
20221208132526 38 0 0.0 6.0 0.00 0.50 0.00 97 1018.6
20221208132024 38 0 1.0 6.0 0.00 0.50 0.00 98 1018.5
20221208131532 38 339 0.0 5.0 0.00 0.50 0.00 98 1018.5
20221208131026 38 315 1.0 5.0 0.00 0.50 0.00 98 1018.6
20221208130523 38 290 1.0 4.0 0.00 0.50 0.00 98 1018.5
20221208130028 37 293 1.0 3.0 0.00 0.50 0.00 97 1018.5
20221208125542 37 293 0.0 3.0 0.00 0.58 0.00 97 1018.4
20221208125024 37 0 0.0 3.0 0.00 0.58 0.00 97 1018.6
20221208124530 37 0 0.0 3.0 0.00 0.58 0.00 97 1018.6
20221208124023 37 0 0.0 3.0 0.00 0.58 0.00 97 1018.5
20221208123523 37 0 0.0 3.0 0.00 0.58 0.00 97 1018.4
20221208123032 37 0 1.0 3.0 0.00 0.58 0.00 97 1018.3
20221208122524 37 280 1.0 3.0 0.00 0.58 0.00 97 1018.3
20221208122026 37 0 0.0 3.0 0.00 0.58 0.00 97 1018.2
20221208121535 37 303 0.0 3.0 0.00 0.58 0.00 97 1018.3
20221208121025 37 303 0.0 3.0 0.00 0.58 0.00 97 1018.1
20221208120524 38 303 1.0 3.0 0.00 0.58 0.00 97 1018.1
20221208120108 38 295 1.0 3.0 0.00 0.58 0.00 97 1018.0
20221208115524 37 0 0.0 3.0 0.00 0.64 0.00 97 1018.1
20221208115024 37 0 0.0 3.0 0.00 0.64 0.00 97 1018.0
20221208114532 37 0 0.0 5.0 0.00 0.64 0.00 97 1018.1
20221208114025 37 302 0.0 5.0 0.00 0.64 0.00 97 1018.0
20221208113526 37 0 0.0 1.0 0.00 0.64 0.00 97 1017.9
20221208113034 37 0 0.0 3.0 0.00 0.64 0.00 97 1017.9
20221208112524 37 0 0.0 3.0 0.00 0.64 0.00 97 1017.8
20221208112025 37 0 0.0 3.0 0.00 0.64 0.00 97 1017.6
20221208111534 37 0 0.0 0.0 0.00 0.64 0.00 97 1017.6
20221208111024 37 0 0.0 2.0 0.00 0.64 0.00 97 1017.6
20221208110523 37 0 0.0 2.0 0.00 0.64 0.00 97 1017.6
20221208110033 37 0 0.0 2.0 0.00 0.64 0.00 97 1017.5
20221208105526 37 305 0.0 3.0 0.00 0.70 0.00 97 1017.4
20221208105024 37 305 1.0 4.0 0.00 0.70 0.00 97 1017.3
20221208104531 37 0 0.0 4.0 0.00 0.70 0.00 97 1017.2
20221208104025 37 293 0.0 2.0 0.00 0.70 0.00 97 1017.1
20221208103525 37 0 1.0 2.0 0.00 0.70 0.00 97 1017.0
20221208103038 37 0 0.0 1.0 0.00 0.70 0.00 97 1017.1
20221208102525 37 0 0.0 1.0 0.00 0.70 0.00 97 1017.0
20221208102026 37 0 0.0 1.0 0.00 0.70 0.00 97 1016.9
20221208101530 37 0 0.0 0.0 0.00 0.70 0.00 97 1016.8
20221208101026 37 0 0.0 0.0 0.00 0.70 0.00 97 1016.8
20221208100525 38 0 0.0 0.0 0.00 0.70 0.00 97 1016.8
20221208100029 38 0 0.0 0.0 0.00 0.70 0.00 97 1016.8
20221208095523 38 0 0.0 0.0 0.00 0.71 0.00 97 1016.9
20221208095041 38 0 0.0 1.0 0.00 0.71 0.00 97 1016.8
20221208094529 38 0 0.0 1.0 0.00 0.71 0.00 97 1016.9
20221208094025 39 0 0.0 1.0 0.00 0.71 0.00 97 1016.8
20221208093526 39 0 0.0 0.0 0.00 0.71 0.00 97 1016.8
20221208093030 39 0 0.0 0.0 0.00 0.71 0.00 97 1017.0
20221208092523 39 0 0.0 0.0 0.00 0.71 0.00 97 1016.9
20221208092025 39 0 0.0 0.0 0.00 0.71 0.00 97 1017.0
20221208091528 39 0 0.0 0.0 0.00 0.71 0.00 97 1017.0
20221208091026 39 0 0.0 0.0 0.00 0.71 0.00 97 1016.8
20221208090526 39 0 0.0 0.0 0.00 0.71 0.00 97 1016.8
20221208090030 39 0 0.0 0.0 0.00 0.71 0.00 97 1016.8
20221208085524 39 0 0.0 0.0 0.00 0.77 0.00 97 1016.6
20221208085024 39 0 0.0 0.0 0.00 0.77 0.00 97 1016.6
20221208084533 39 0 0.0 0.0 0.00 0.77 0.00 97 1016.6
20221208084024 40 0 0.0 0.0 0.00 0.77 0.00 97 1016.6
20221208083524 40 0 0.0 1.0 0.00 0.77 0.00 97 1016.6
20221208083031 40 0 0.0 1.0 0.00 0.77 0.00 97 1016.7
20221208082523 40 0 0.0 1.0 0.00 0.77 0.00 97 1016.5
20221208082026 40 0 0.0 1.0 0.00 0.77 0.00 97 1016.5
20221208081532 40 0 0.0 0.0 0.00 0.77 0.00 97 1016.5
20221208081025 40 0 0.0 0.0 0.00 0.77 0.00 97 1016.4
20221208080526 40 0 0.0 0.0 0.00 0.77 0.00 97 1016.5
20221208080034 40 0 0.0 0.0 0.00 0.77 0.00 97 1016.4
20221208075525 40 0 0.0 0.0 0.00 0.83 0.00 97 1016.3
20221208075030 40 0 0.0 0.0 0.00 0.83 0.00 97 1016.3
20221208074528 40 0 0.0 1.0 0.00 0.83 0.00 97 1016.3
20221208074025 41 0 0.0 1.0 0.00 0.83 0.00 97 1016.3
20221208073524 41 0 0.0 0.0 0.00 0.83 0.00 97 1016.2
20221208073033 41 0 0.0 0.0 0.00 0.83 0.00 97 1016.2
20221208072528 41 0 0.0 0.0 0.00 0.83 0.00 97 1016.3
20221208072024 41 0 0.0 0.0 0.00 0.83 0.00 97 1016.3
20221208071531 42 0 0.0 0.0 0.00 0.83 0.00 97 1016.3
20221208071025 42 0 0.0 0.0 0.00 0.83 0.00 97 1016.3
20221208070527 42 0 0.0 1.0 0.00 0.83 0.00 97 1016.3
20221208070028 42 0 0.0 1.0 0.00 0.83 0.00 97 1016.3
20221208065523 43 0 0.0 1.0 0.00 0.84 0.00 97 1016.2
20221208065023 43 0 0.0 0.0 0.00 0.84 0.00 97 1016.2
20221208064526 43 0 0.0 0.0 0.00 0.84 0.00 97 1016.2
20221208064022 44 0 0.0 0.0 0.00 0.84 0.00 97 1016.1
20221208063524 44 0 0.0 0.0 0.00 0.84 0.00 97 1015.9
20221208063035 44 0 0.0 0.0 0.00 0.84 0.00 97 1016.0
20221208062525 44 0 0.0 0.0 0.00 0.84 0.00 97 1015.9
20221208062025 44 0 0.0 0.0 0.00 0.84 0.00 97 1015.7
20221208061527 45 0 0.0 0.0 0.00 0.84 0.00 97 1015.7
20221208061023 45 0 0.0 0.0 0.00 0.84 0.00 97 1015.6
20221208060525 45 0 0.0 0.0 0.00 0.84 0.00 97 1015.5
20221208060033 45 0 0.0 0.0 0.00 0.84 0.00 97 1015.5
20221208055525 45 0 0.0 0.0 0.00 0.85 0.00 97 1015.6
20221208055028 45 0 0.0 0.0 0.00 0.85 0.00 97 1015.5
20221208054535 45 0 0.0 0.0 0.00 0.85 0.00 97 1015.5
20221208054029 45 0 0.0 1.0 0.00 0.85 0.00 97 1015.3
20221208053524 45 0 0.0 1.0 0.00 0.85 0.00 97 1015.3
20221208053029 45 0 0.0 0.0 0.00 0.85 0.00 97 1015.2
20221208052530 46 0 0.0 0.0 0.00 0.85 0.00 97 1015.3
20221208052026 46 0 0.0 0.0 0.00 0.85 0.00 97 1015.2
20221208051533 46 0 0.0 1.0 0.00 0.85 0.00 97 1015.3
20221208051028 46 0 0.0 1.0 0.00 0.85 0.00 97 1015.2
20221208050524 46 0 0.0 0.0 0.00 0.85 0.00 97 1015.1
20221208050035 46 0 0.0 0.0 0.00 0.85 0.00 97 1015.0
20221208045527 46 0 0.0 2.0 0.00 0.87 0.85 97 1014.9
20221208045026 46 0 0.0 2.0 0.00 0.87 0.85 97 1015.1
20221208044530 46 0 0.0 0.0 0.00 0.87 0.85 97 1015.1
20221208044026 46 0 0.0 0.0 0.00 0.87 0.85 97 1015.1
20221208043523 46 0 0.0 0.0 0.00 0.87 0.85 97 1015.2
20221208043032 46 0 0.0 0.0 0.00 0.87 0.85 97 1015.2
20221208042523 46 0 0.0 0.0 0.00 0.87 0.85 97 1015.2
20221208042022 47 0 0.0 0.0 0.00 0.87 0.85 97 1015.3
20221208041532 47 0 0.0 0.0 0.00 0.87 0.85 97 1015.3
20221208041025 47 0 0.0 0.0 0.00 0.87 0.85 97 1015.5
20221208040525 47 0 0.0 0.0 0.00 0.87 0.85 97 1015.4
20221208040038 47 0 0.0 0.0 0.00 0.87 0.85 97 1015.4
20221208035522 47 0 0.0 0.0 0.00 0.91 0.85 97 1015.3
20221208035027 47 0 0.0 0.0 0.00 0.91 0.85 97 1015.4
20221208034526 48 0 0.0 0.0 0.00 0.91 0.85 97 1015.6
20221208034023 48 0 0.0 0.0 0.00 0.91 0.85 97 1015.3
20221208033524 48 0 0.0 0.0 0.00 0.91 0.85 97 1015.1
20221208033028 48 0 0.0 0.0 0.00 0.91 0.85 97 1015.1
20221208032527 48 0 0.0 0.0 0.00 0.91 0.85 97 1015.1
20221208032024 48 0 0.0 0.0 0.00 0.91 0.85 98 1015.3
20221208031533 48 0 0.0 0.0 0.00 0.91 0.85 97 1015.5
20221208031023 48 0 0.0 0.0 0.00 0.91 0.85 97 1015.6
20221208030523 49 0 0.0 0.0 0.01 0.91 0.85 97 1015.8
20221208030027 49 0 0.0 0.0 0.01 0.91 0.85 97 1015.8
20221208025527 49 0 0.0 0.0 0.01 0.93 0.85 97 1015.8
20221208025024 49 0 0.0 1.0 0.01 0.93 0.85 98 1016.0
20221208024529 49 0 0.0 1.0 0.02 0.93 0.85 98 1016.0
20221208024026 49 0 0.0 1.0 0.02 0.93 0.85 97 1016.0
20221208023523 50 0 0.0 1.0 0.03 0.93 0.85 97 1016.0
20221208023031 50 0 0.0 0.0 0.04 0.93 0.85 97 1015.9
20221208022522 50 0 0.0 0.0 0.06 0.93 0.85 98 1015.9